EN

Hourly Weather Abdulmambetovo

Today, 12 June, Saturday

Time Temperature Precipitation Wind Pressure Humidity
00:00 +13°C° 0.1 mm 3 mps 728 mmHg 82%
01:00 +13°C° 0.1 mm 3 mps 728 mmHg 79%
02:00 +12°C° 0 mm 3 mps 728 mmHg 79%
03:00 +12°C° 0 mm 3 mps 728 mmHg 80%
04:00 +11°C° 0 mm 3 mps 729 mmHg 81%
05:00 +12°C° 0 mm 3 mps 729 mmHg 78%
06:00 +13°C° 0 mm 3 mps 729 mmHg 75%
07:00 +14°C° 0 mm 3 mps 729 mmHg 72%
08:00 +15°C° 0 mm 4 mps 729 mmHg 65%
09:00 +17°C° 0 mm 5 mps 729 mmHg 58%
10:00 +20°C° 0 mm 6 mps 730 mmHg 51%
11:00 +21°C° 0 mm 6 mps 729 mmHg 47%
12:00 +22°C° 0 mm 7 mps 729 mmHg 44%
13:00 +23°C° 0 mm 7 mps 729 mmHg 41%
14:00 +24°C° 0 mm 7 mps 729 mmHg 41%
15:00 +24°C° 0 mm 6 mps 729 mmHg 41%
16:00 +26°C° 0 mm 6 mps 728 mmHg 41%
17:00 +23°C° 0 mm 6 mps 728 mmHg 45%
18:00 +22°C° 0 mm 6 mps 728 mmHg 48%
19:00 +20°C° 0 mm 5 mps 728 mmHg 51%
20:00 +20°C° 0 mm 5 mps 728 mmHg 53%
21:00 +19°C° 0 mm 4 mps 729 mmHg 54%
22:00 +19°C° 0 mm 3 mps 729 mmHg 55%
23:00 +18°C° 0 mm 2 mps 729 mmHg 61%

Tomorrow, 13 June, Sunday

Time Temperature Precipitation Wind Pressure Humidity
00:00 +18°C° 0 mm 1 mps 729 mmHg 67%
01:00 +16°C° 0 mm 1 mps 729 mmHg 72%
02:00 +15°C° 0.6 mm 1 mps 729 mmHg 74%
03:00 +15°C° 0.6 mm 1 mps 730 mmHg 76%
04:00 +15°C° 0.6 mm 2 mps 730 mmHg 78%
05:00 +15°C° 1.1 mm 2 mps 730 mmHg 80%
06:00 +14°C° 1.1 mm 2 mps 730 mmHg 81%
07:00 +14°C° 1.1 mm 1 mps 730 mmHg 83%
08:00 +15°C° 0 mm 2 mps 731 mmHg 78%
09:00 +16°C° 0 mm 2 mps 731 mmHg 74%
10:00 +16°C° 0 mm 2 mps 731 mmHg 69%
11:00 +18°C° 0 mm 2 mps 731 mmHg 64%
12:00 +19°C° 0 mm 3 mps 731 mmHg 59%
13:00 +20°C° 0 mm 3 mps 731 mmHg 54%
14:00 +21°C° 0 mm 3 mps 731 mmHg 54%
15:00 +21°C° 0 mm 3 mps 731 mmHg 54%
16:00 +22°C° 0 mm 3 mps 731 mmHg 54%
17:00 +21°C° 0 mm 3 mps 731 mmHg 58%
18:00 +21°C° 0 mm 3 mps 731 mmHg 62%
19:00 +20°C° 0 mm 3 mps 731 mmHg 66%
20:00 +19°C° 0 mm 2 mps 731 mmHg 66%
21:00 +17°C° 0 mm 2 mps 731 mmHg 66%
22:00 +16°C° 0 mm 1 mps 731 mmHg 66%
23:00 +16°C° 0 mm 1 mps 731 mmHg 64%

Day after tomorrow, 14 June, Monday

Time Temperature Precipitation Wind Pressure Humidity
00:00 +16°C° 0 mm 1 mps 731 mmHg 62%
01:00 +16°C° 0 mm 1 mps 731 mmHg 60%
02:00 +14°C° 0 mm 0 mps 731 mmHg 61%
03:00 +14°C° 0 mm 0 mps 731 mmHg 62%
04:00 +13°C° 0 mm 0 mps 731 mmHg 63%
05:00 +16°C° 0 mm 1 mps 731 mmHg 60%
06:00 +18°C° 0 mm 1 mps 732 mmHg 57%
07:00 +19°C° 0 mm 2 mps 732 mmHg 53%
08:00 +21°C° 0 mm 2 mps 732 mmHg 48%
09:00 +22°C° 0 mm 3 mps 732 mmHg 44%
10:00 +25°C° 0 mm 4 mps 732 mmHg 39%
11:00 +26°C° 0 mm 4 mps 732 mmHg 37%
12:00 +27°C° 0 mm 4 mps 732 mmHg 36%
13:00 +27°C° 0 mm 4 mps 732 mmHg 34%
14:00 +28°C° 0 mm 4 mps 732 mmHg 34%
15:00 +28°C° 0 mm 4 mps 731 mmHg 35%
16:00 +28°C° 0 mm 4 mps 731 mmHg 35%
17:00 +27°C° 0 mm 3 mps 731 mmHg 41%
18:00 +26°C° 0 mm 2 mps 731 mmHg 47%
19:00 +25°C° 0 mm 1 mps 731 mmHg 53%
20:00 +23°C° 0 mm 1 mps 731 mmHg 54%
21:00 +21°C° 0 mm 1 mps 730 mmHg 54%
22:00 +19°C° 0 mm 1 mps 730 mmHg 55%
23:00 +19°C° 0 mm 1 mps 730 mmHg 55%

15 June, Tuesday

Time Temperature Precipitation Wind Pressure Humidity
00:00 +18°C° 0 mm 1 mps 730 mmHg 55%
01:00 +18°C° 0 mm 1 mps 730 mmHg 55%
02:00 +18°C° 0 mm 1 mps 730 mmHg 56%
03:00 +16°C° 0 mm 1 mps 730 mmHg 56%
04:00 +15°C° 0 mm 0 mps 730 mmHg 57%
05:00 +19°C° 0 mm 1 mps 730 mmHg 55%
06:00 +20°C° 0 mm 1 mps 730 mmHg 54%
07:00 +22°C° 0 mm 1 mps 730 mmHg 52%
08:00 +23°C° 0 mm 2 mps 730 mmHg 50%
09:00 +25°C° 0 mm 2 mps 730 mmHg 47%
10:00 +26°C° 0 mm 3 mps 730 mmHg 44%
11:00 +27°C° 0 mm 3 mps 730 mmHg 41%
12:00 +28°C° 0 mm 3 mps 729 mmHg 38%
13:00 +29°C° 0 mm 4 mps 729 mmHg 35%
14:00 +29°C° 0 mm 4 mps 729 mmHg 35%
15:00 +29°C° 0 mm 4 mps 729 mmHg 35%
16:00 +29°C° 0 mm 4 mps 728 mmHg 35%
17:00 +28°C° 0 mm 3 mps 728 mmHg 41%
18:00 +27°C° 0 mm 2 mps 728 mmHg 46%
19:00 +26°C° 0 mm 1 mps 727 mmHg 52%
20:00 +22°C° 0 mm 0 mps 727 mmHg 53%
21:00 +21°C° 0 mm 0 mps 727 mmHg 53%
22:00 +19°C° 0 mm 0 mps 727 mmHg 54%
23:00 +19°C° 0 mm 0 mps 727 mmHg 55%

16 June, Wednesday

Time Temperature Precipitation Wind Pressure Humidity
00:00 +18°C° 0 mm 0 mps 726 mmHg 56%
01:00 +17°C° 0 mm 0 mps 726 mmHg 57%
02:00 +17°C° 0 mm 0 mps 726 mmHg 57%
03:00 +17°C° 0 mm 0 mps 726 mmHg 58%
04:00 +16°C° 0 mm 0 mps 726 mmHg 58%
05:00 +20°C° 0 mm 1 mps 727 mmHg 57%
06:00 +22°C° 0 mm 1 mps 727 mmHg 55%
07:00 +23°C° 0 mm 2 mps 727 mmHg 54%
08:00 +25°C° 0 mm 2 mps 727 mmHg 50%
09:00 +26°C° 0 mm 2 mps 727 mmHg 46%
10:00 +28°C° 0 mm 2 mps 727 mmHg 43%
11:00 +29°C° 0 mm 2 mps 727 mmHg 39%
12:00 +30°C° 0 mm 2 mps 727 mmHg 35%
13:00 +31°C° 0 mm 3 mps 727 mmHg 32%
14:00 +30°C° 0 mm 3 mps 726 mmHg 33%
15:00 +30°C° 0 mm 3 mps 726 mmHg 34%
16:00 +30°C° 0 mm 3 mps 726 mmHg 36%
17:00 +29°C° 0 mm 3 mps 726 mmHg 43%
18:00 +28°C° 0 mm 3 mps 725 mmHg 50%
19:00 +26°C° 0 mm 2 mps 725 mmHg 57%
20:00 +25°C° 0 mm 2 mps 725 mmHg 55%
21:00 +24°C° 0 mm 2 mps 725 mmHg 53%
22:00 +23°C° 0 mm 1 mps 725 mmHg 52%
23:00 +22°C° 0 mm 1 mps 725 mmHg 54%

17 June, Thursday

Time Temperature Precipitation Wind Pressure Humidity
00:00 +21°C° 0 mm 1 mps 724 mmHg 56%
01:00 +20°C° 0 mm 1 mps 724 mmHg 58%
02:00 +20°C° 0 mm 1 mps 724 mmHg 58%
03:00 +20°C° 0 mm 1 mps 723 mmHg 59%
04:00 +19°C° 0 mm 2 mps 723 mmHg 60%
05:00 +20°C° 0.1 mm 2 mps 723 mmHg 61%
06:00 +21°C° 0.1 mm 2 mps 723 mmHg 62%
07:00 +23°C° 0.1 mm 2 mps 723 mmHg 64%
08:00 +24°C° 0 mm 3 mps 722 mmHg 61%
09:00 +25°C° 0 mm 3 mps 722 mmHg 58%
10:00 +26°C° 0 mm 3 mps 722 mmHg 56%
11:00 +27°C° 0 mm 4 mps 722 mmHg 52%
12:00 +28°C° 0 mm 5 mps 722 mmHg 48%
13:00 +29°C° 0 mm 6 mps 722 mmHg 45%
14:00 +28°C° 0 mm 6 mps 722 mmHg 50%
15:00 +27°C° 0 mm 7 mps 721 mmHg 55%
16:00 +26°C° 0 mm 7 mps 721 mmHg 59%
17:00 +24°C° 0.4 mm 6 mps 721 mmHg 67%
18:00 +22°C° 0.4 mm 5 mps 721 mmHg 74%
19:00 +21°C° 0.4 mm 5 mps 721 mmHg 81%
20:00 +19°C° 0.2 mm 4 mps 722 mmHg 84%
21:00 +18°C° 0.2 mm 4 mps 722 mmHg 87%
22:00 +16°C° 0.2 mm 3 mps 723 mmHg 90%
23:00 +16°C° 0 mm 3 mps 723 mmHg 89%
Show more